• Join FlightAware (Why Join?)
  • Login
  • US Flag 
10:31AM EDT


 

Airport Tracker/Info


-or-


 

Live Flight TrackerFlight Track Log ✈ AWE1940 ✈ 30-Jun-2013 ✈ KCLT - KALB

Flight Track Log - Related Links

Times and Time Zones

All times are in EDT time to prevent confusion due to time zone crossing. See the AWE1940 flight status page for this flight to view local times or setup timezone preferences in your user account.

Time Position Orientation Groundspeed Altitude Reporting Facility
EDT Latitude Longitude Course Direction KTS MPH feet Rate Location/Type
10:41PM 35.1908 -80.9356 72° East 175 201 1,500  Level Atlanta Center
10:42PM 35.1189 -80.8928 154° Southeast 240 276 5,300 2,580 Climbing Atlanta Center
10:43PM 35.1375 -80.8056 75° East 304 350 7,900 2,520 Climbing Atlanta Center
10:44PM 35.2320 -80.5438 30° Northeast  Level FlightAware Approximate
10:44PM 35.1847 -80.7072 60° Northeast 300 345 10,800  Level Atlanta Center
10:45PM 35.3220 -80.4667 North  Level FlightAware Approximate
10:45PM 35.2300 -80.6036 62° Northeast 322 371 12,700  Level Atlanta Center
10:46PM 35.3658 -80.3436 72° East  Level FlightAware Approximate
10:48PM 35.3506 -80.3364 61° Northeast 408 470 17,400  Level Washington Center
10:49PM 35.4078 -80.2047 62° Northeast 424 488 19,500 2,040 Climbing Washington Center
10:50PM 35.4506 -80.0642 69° East 429 494 21,500 1,800 Climbing Washington Center
10:51PM 35.4914 -79.9236 70° East 434 499 23,100 1,680 Climbing Washington Center
10:52PM 35.5281 -79.7725 73° East 440 506 24,900 1,440 Climbing Washington Center
10:53PM 35.5644 -79.6214 73° East 451 519 26,000 1,320 Climbing Washington Center
10:54PM 35.6139 -79.4500 70° East 477 549 27,700 1,320 Climbing Washington Center
10:55PM 35.6986 -79.3442 45° Northeast 469 540 28,700 1,080 Climbing Washington Center
10:56PM 35.8022 -79.2364 40° Northeast 469 540 29,900 1,320 Climbing Washington Center
10:57PM 35.9058 -79.1231 42° Northeast 479 551 31,400 1,200 Climbing Washington Center
10:58PM 36.0050 -79.0094 43° Northeast 484 557 32,400 1,080 Climbing Washington Center
10:59PM 36.1169 -78.8883 41° Northeast 484 557 33,600 960 Climbing Washington Center
11:00PM 36.2158 -78.7767 42° Northeast 479 551 34,400 660 Climbing Washington Center
11:01PM 36.3169 -78.6672 41° Northeast 479 551 35,000 240 Climbing Washington Center
11:02PM 36.4136 -78.5550 43° Northeast 474 545 35,000  Level Washington Center
11:03PM 36.5164 -78.4503 39° Northeast 474 545 35,000  Level Washington Center
11:04PM 36.6250 -78.3483 37° Northeast 479 551 35,000  Level Washington Center
11:05PM 36.7297 -78.2456 38° Northeast 473 544 35,000  Level Washington Center
11:06PM 36.8361 -78.1428 38° Northeast 473 544 35,000  Level Washington Center
11:07PM 36.9322 -78.0472 38° Northeast 481 554 35,000  Level Washington Center
11:08PM 37.0383 -77.9442 38° Northeast 481 554 35,000  Level Washington Center
11:09PM 37.1447 -77.8406 38° Northeast 481 554 35,000  Level Washington Center
11:10PM 37.2531 -77.7392 37° Northeast 481 554 35,000  Level Washington Center
11:11PM 37.3569 -77.6350 39° Northeast 481 554 35,000  Level Washington Center
11:12PM 37.4631 -77.5333 37° Northeast 481 554 35,000  Level Washington Center
11:13PM 37.5711 -77.4286 38° Northeast 481 554 35,000  Level Washington Center
11:14PM 37.6853 -77.3133 39° Northeast 481 554 35,000  Level Washington Center
11:15PM 37.7933 -77.2053 38° Northeast 481 554 35,000  Level Washington Center
11:16PM 37.9011 -77.0997 38° Northeast 481 554 35,000  Level Washington Center
11:17PM 38.0044 -76.9911 40° Northeast 481 554 35,000  Level Washington Center
11:18PM 38.1119 -76.8850 38° Northeast 481 554 35,000  Level Washington Center
11:19PM 38.2047 -76.7861 40° Northeast 481 554 35,000  Level Washington Center
11:20PM 38.3206 -76.6714 38° Northeast 481 554 35,000  Level Washington Center
11:21PM 38.4258 -76.5644 39° Northeast 481 554 35,000  Level Washington Center
11:22PM 38.5328 -76.4569 38° Northeast 487 560 35,000  Level Washington Center
11:23PM 38.6400 -76.3464 39° Northeast 487 560 35,000  Level Washington Center
11:24PM 38.7447 -76.2383 39° Northeast 487 560 35,000  Level Washington Center
11:25PM 38.8411 -76.1406 38° Northeast 487 560 35,000 -60 Level Washington Center
11:26PM 38.9481 -76.0319 38° Northeast 487 560 34,900  Descending Washington Center
11:27PM 39.0525 -75.9203 40° Northeast 487 560 35,000  Climbing Washington Center
11:28PM 39.1569 -75.8111 39° Northeast 487 560 35,000  Level Washington Center
11:29PM 39.2633 -75.7014 39° Northeast 487 560 35,000  Level Washington Center
11:30PM 39.3697 -75.5889 39° Northeast 487 560 35,000  Level Washington Center
11:32PM 39.6408 -75.3000 39° Northeast 486 559 35,000  Level New York Center
11:33PM 39.7333 -75.1708 47° Northeast 480 552 35,000  Level New York Center
11:34PM 39.8239 -75.0361 49° Northeast 486 559 35,000  Level New York Center
11:35PM 39.9139 -74.9089 47° Northeast 486 559 35,000  Level New York Center
11:36PM 40.0058 -74.7761 48° Northeast 489 563 35,000  Level New York Center
11:37PM 40.0892 -74.6561 48° Northeast 484 557 35,000 -360 Level New York Center
11:39PM 40.3294 -74.4600 32° Northeast 468 539 34,000 -660 Descending Boston Center
11:40PM 40.4636 -74.4231 12° North 468 539 33,100 -960 Descending Boston Center
11:41PM 40.5997 -74.3889 11° North 480 552 32,100 -900 Descending Boston Center
11:42PM 40.7397 -74.3575 10° North 493 567 31,300 -900 Descending Boston Center
11:43PM 40.8736 -74.3231 11° North 498 573 30,300 -1,200 Descending Boston Center
11:44PM 41.0036 -74.2856 12° North 487 560 29,000 -2,160 Descending Boston Center
11:45PM 41.1353 -74.2508 11° North 481 554 26,000 -1,500 Descending Boston Center
11:46PM 41.2422 -74.2206 12° North 481 554 26,000  Level Boston Center
11:47PM 41.3825 -74.1803 12° North 471 542 26,000 -120 Level Boston Center
11:48PM 41.5039 -74.1475 11° North 477 549 25,800 -1,800 Descending Boston Center
11:49PM 41.6650 -74.1047 11° North 487 560 22,500 -3,000 Descending Boston Center
11:50PM 41.7925 -74.0692 12° North 482 555 19,900 -2,580 Descending Boston Center
11:51PM 41.8972 -74.0439 10° North 449 517 17,400 -2,640 Descending Boston Center
11:52PM 41.9850 -74.0208 11° North 434 499 15,500 -2,580 Descending Boston Center
11:53PM 42.1378 -73.9772 12° North 420 483 12,300 -2,220 Descending Boston Center
11:54PM 42.2444 -73.9461 12° North 394 453 10,400 -1,200 Descending Boston Center
11:55PM 42.3386 -73.9203 11° North 359 413 9,900 -960 Descending Boston Center
11:56PM 42.4139 -73.8997 11° North 314 361 8,500 -1,500 Descending Boston Center
11:57PM 42.5036 -73.8989 360° North 295 339 6,900 -1,500 Descending Boston Center
11:58PM 42.5828 -73.8978 North 286 329 5,500 -1,500 Descending Boston Center
11:59PM 42.6619 -73.9025 357° North 286 329 4,000 -960 Descending Boston Center
12:00AM 42.7308 -73.9014 North 268 308 3,600 -540 Descending Boston Center
12:01AM 42.7911 -73.9000 North 237 273 3,000 -600 Descending Boston Center
12:02AM 42.8453 -73.9014 359° North 216 249 2,500 -480 Descending Boston Center
12:03AM 42.8647 -73.8564 59° Northeast 191 220 2,100 -420 Descending Boston Center
12:04AM 42.8278 -73.8103 138° Southeast 150 173 1,700 -360 Descending Boston Center